Overview Statistics Trail Chart Weather Telemetry Raw packets
 

This is the latest recevied weather packets stored in our database for station/object KI5RAB. If no packets are shown the sender has not sent any weather packets the latest 10 day(s).

<< 29 30 31 32 33 34 35 >>
Time Temp. Humidity Pressure Rain* Wind** Luminosity Snow
1788464345 37.22° C 45% 1014.7 hPa 0 mm - 662 W/m² -
1788464042 37.22° C 46% 1014.7 hPa 0 mm - 663 W/m² -
1788463736 36.67° C 47% 1014.9 hPa 0 mm - 671 W/m² -
1788463433 36.67° C 48% 1014.9 hPa 0 mm - 678 W/m² -
1788463129 36.67° C 48% 1014.9 hPa 0 mm - 682 W/m² -
1788462825 37.78° C 46% 1015 hPa 0 mm - 685 W/m² -
1788462524 37.22° C 47% 1015.1 hPa 0 mm - 692 W/m² -
1788462218 36.67° C 46% 1015.2 hPa 0 mm - 692 W/m² -
1788461918 37.22° C 49% 1015.6 hPa 0 mm - 693 W/m² -
1788461613 36.67° C 49% 1015.6 hPa 0 mm - 700 W/m² -
1788461309 36.67° C 48% 1015.7 hPa 0 mm - 706 W/m² -
1788461005 36.11° C 50% 1015.8 hPa 0 mm - 704 W/m² -
1788460700 35.56° C 51% 1015.8 hPa 0 mm - 708 W/m² -
1788460395 36.11° C 50% 1016.2 hPa 0 mm - 707 W/m² -
1788460093 35.56° C 50% 1015.9 hPa 0 mm - 708 W/m² -
1788459788 35.56° C 52% 1016.1 hPa 0 mm - 710 W/m² -
1788459488 35.56° C 53% 1016.3 hPa 0 mm - 710 W/m² -
1788459183 35° C 55% 1016.2 hPa 0 mm - 707 W/m² -
1788458878 35.56° C 54% 1016.2 hPa 0 mm - 706 W/m² -
1788458577 35.56° C 54% 1016.5 hPa 0 mm - 705 W/m² -
1788458276 34.44° C 56% 1016.5 hPa 0 mm - 705 W/m² -
1788457975 35° C 55% 1016.5 hPa 0 mm - 697 W/m² -
1788457674 34.44° C 56% 1016.7 hPa 0 mm - 699 W/m² -
1788457370 33.89° C 60% 1016.8 hPa 0 mm - 687 W/m² -
1788457066 34.44° C 55% 1016.9 hPa 0 mm - 689 W/m² -

* Rain latest hour (hover to see other rain measurements)
** Current wind speed in m/s (hover to see current wind gust speed)